Satellite: NO-61
Catalog number: 29667
Epoch time:      07045.96051082
Element set:    0057
Inclination:      051.6365 deg
RA of node:       013.1772 deg
Eccentricity:    0.0014929
Arg of perigee:   224.4535 deg
Mean anomaly:     135.5273 deg
Mean motion:   15.83755415 rev/day
Decay rate:     1.5912e-04 rev/day^2
Epoch rev:           00860
Checksum:              303

/EX
SB KEPS @ AMSAT  $ORB07046.W
Orbital Elements  07046.WEATHER

HR AMSAT ORBITAL ELEMENTS FOR WEATHER SATELLITES
FROM WA5QGD FORT WORTH,TX February 15, 2007
Send SUBSCRIBE KEPS/UNSUBSCRIBE KEPS to majordomo at amsat.org only
BID: ORB07046.W
TO ALL RADIO AMATEURS BT

Satellite: NOAA-10
Catalog number: 16969
Epoch time:      07045.55628502
Element set:    0547
Inclination:      098.7542 deg
RA of node:       062.6193 deg
Eccentricity:    0.0012548
Arg of perigee:   161.6180 deg
Mean anomaly:     198.5447 deg
Mean motion:   14.27317361 rev/day
Decay rate:        1.6e-07 rev/day^2
Epoch rev:           06173
Checksum:              310

Satellite: NOAA-11
Catalog number: 19531
Epoch time:      07045.78797797
Element set:    0533
Inclination:      098.8147 deg
RA of node:       136.4761 deg
Eccentricity:    0.0012012
Arg of perigee:   022.7817 deg
Mean anomaly:     337.3859 deg
Mean motion:   14.14835751 rev/day
Decay rate:       1.90e-06 rev/day^2
Epoch rev:           94884
Checksum:              337

Satellite: NOAA-12
Catalog number: 21263
Epoch time:      07045.89314626
Element set:    0027
Inclination:      098.7491 deg
RA of node:       043.3639 deg
Eccentricity:    0.0013619
Arg of perigee:   102.3108 deg
Mean anomaly:     257.9623 deg
Mean motion:   14.25521670 rev/day
Decay rate:       -4.9e-07 rev/day^2
Epoch rev:           81882
Checksum:              301

Satellite: MET-3/5
Catalog number: 21655
Epoch time:      07046.84897210
Element set:     226
Inclination:      082.5533 deg
RA of node:       088.6777 deg
Eccentricity:    0.0013574
Arg of perigee:   146.8672 deg
Mean anomaly:     213.3304 deg
Mean motion:   13.17009775 rev/day
Decay rate:        5.1e-07 rev/day^2
Epoch rev:           74543
Checksum:              312

Satellite: MET-2/21
Catalog number: 22782
Epoch time:      07046.37347195
Element set:     749
Inclination:      082.5504 deg
RA of node:       138.5588 deg
Eccentricity:    0.0021442
Arg of perigee:   214.8281 deg
Mean anomaly:     145.1460 deg
Mean motion:   13.83612950 rev/day
Decay rate:       -3.5e-07 rev/day^2
Epoch rev:           67967
Checksum:              317

Satellite: OKEAN-4
Catalog number: 23317
Epoch time:      07045.74291861
Element set:     186
Inclination:      082.5374 deg
RA of node:       050.7620 deg
Eccentricity:    0.0020751
Arg of perigee:   298.6691 deg
Mean anomaly:     061.2440 deg
Mean motion:   14.82467356 rev/day
Decay rate:       2.96e-06 rev/day^2
Epoch rev:           66591
Checksum:              311

Satellite: NOAA-14
Catalog number: 23455
Epoch time:      07045.70933784
Element set:    0518
Inclination:      099.0053 deg
RA of node:       111.1656 deg
Eccentricity:    0.0010065
Arg of perigee:   087.9426 deg
Mean anomaly:     272.2879 deg
Mean motion:   14.13699404 rev/day
Decay rate:        4.2e-07 rev/day^2
Epoch rev:           62533
Checksum:              304

Satellite: SICH-1
Catalog number: 23657
Epoch time:      07046.78027532
Element set:     988
Inclination:      082.5298 deg
RA of node:       190.7049 deg
Eccentricity:    0.0022532
Arg of perigee:   284.2546 deg
Mean anomaly:     075.6662 deg
Mean motion:   14.81450405 rev/day
Decay rate:        2.1e-07 rev/day^2
Epoch rev:           61805
Checksum:              307

Satellite: NOAA-15
Catalog number: 25338
Epoch time:      07045.89555291
Element set:    0879
Inclination:      098.5281 deg
RA of node:       046.0479 deg
Eccentricity:    0.0010991
Arg of perigee:   030.6839 deg
Mean anomaly:     329.4991 deg
Mean motion:   14.24626411 rev/day
Decay rate:        4.5e-07 rev/day^2
Epoch rev:           45527
Checksum:              334

Satellite: RESURS
Catalog number: 25394
Epoch time:      07045.74837315
Element set:    0578
Inclination:      098.4579 deg
RA of node:       105.0281 deg
Eccentricity:    0.0001263
Arg of perigee:   151.6689 deg
Mean anomaly:     208.4560 deg
Mean motion:   14.24127124 rev/day
Decay rate:       -5.0e-08 rev/day^2
Epoch rev:           44692
Checksum:              299

Satellite: FENGYUN1
Catalog number: 25730
Epoch time:      07046.92926624
Element set:     954
Inclination:      098.6802 deg
RA of node:       035.4391 deg
Eccentricity:    0.0021111
Arg of perigee:   107.0710 deg
Mean anomaly:     253.2775 deg
Mean motion:   14.07416339 rev/day
Decay rate:       2.62e-06 rev/day^2
Epoch rev:           40040
Checksum:              269

Satellite: OKEAN-0
Catalog number: 25860
Epoch time:      07046.74195113
Element set:     979
Inclination:      097.7316 deg
RA of node:       054.6678 deg
Eccentricity:    0.0001871
Arg of perigee:   064.6358 deg
Mean anomaly:     295.5063 deg
Mean motion:   14.73430500 rev/day
Decay rate:        7.1e-07 rev/day^2
Epoch rev:           40761
Checksum:              306

Satellite: NOAA-16
Catalog number: 26536
Epoch time:      07045.84967246
Element set:    0286
Inclination:      099.1030 deg
RA of node:       020.7490 deg
Eccentricity:    0.0010933
Arg of perigee:   154.3775 deg
Mean anomaly:     205.7958 deg
Mean motion:   14.12404513 rev/day
Decay rate:        9.0e-07 rev/day^2
Epoch rev:           32983
Checksum:              305

Satellite: NOAA-17
Catalog number: 27453
Epoch time:      07045.68504729
Element set:    0301
Inclination:      098.5941 deg
RA of node:       117.8625 deg
Eccentricity:    0.0012657
Arg of perigee:   091.5878 deg
Mean anomaly:     268.6756 deg
Mean motion:   14.23853129 rev/day
Decay rate:       -3.9e-07 rev/day^2
Epoch rev:           24128
Checksum:              334

Satellite: NOAA-18
Catalog number: 28654
Epoch time:      07045.72343095
Element set:    0844
Inclination:      098.8166 deg
RA of node:       349.1393 deg
Eccentricity:    0.0013554
Arg of perigee:   254.5755 deg
Mean anomaly:     105.3902 deg
Mean motion:   14.11036983 rev/day
Decay rate:       -5.9e-07 rev/day^2
Epoch rev:           08958
Checksum:              332

/EX
SB KEPS @ AMSAT  $ORB07046.M
Orbital Elements  07046.MISC

HR AMSAT ORBITAL ELEMENTS FOR MANNED AND MISCELLANEOUS SATELLITES
FROM WA5QGD FORT WORTH,TX February 15, 2007
Send SUBSCRIBE KEPS/UNSUBSCRIBE KEPS to majordomo at amsat.org only
BID: ORB07046.M
TO ALL RADIO AMATEURS BT

Satellite: HUBBLE
Catalog number: 20580
Epoch time:      07045.93287173
Element set:    0824
Inclination:      028.4685 deg
RA of node:       267.3067 deg
Eccentricity:    0.0003766
Arg of perigee:   238.7372 deg
Mean anomaly:     121.2849 deg
Mean motion:   15.00190822 rev/day
Decay rate:       3.98e-06 rev/day^2
Epoch rev:           72158
Checksum:              310

Satellite: UARS
Catalog number: 21701
Epoch time:      07046.77376494
Element set:     996
Inclination:      056.9769 deg
RA of node:       120.3038 deg
Eccentricity:    0.0091650
Arg of perigee:   320.6038 deg
Mean anomaly:     038.8376 deg
Mean motion:   15.46703172 rev/day
Decay rate:      4.896e-05 rev/day^2
Epoch rev:           84695
Checksum:              339

Satellite: PO-34
Catalog number: 25520
Epoch time:      07046.79355637
Element set:     675
Inclination:      028.4588 deg
RA of node:       201.1830 deg
Eccentricity:    0.0004942
Arg of perigee:   016.0063 deg
Mean anomaly:     344.0686 deg
Mean motion:   15.16926126 rev/day
Decay rate:       5.47e-06 rev/day^2
Epoch rev:           45907
Checksum:              307

Satellite: ISS
Catalog number: 25544
Epoch time:      07047.01064127
Element set:     650
Inclination:      051.6352 deg
RA of node:       010.2234 deg
Eccentricity:    0.0020872
Arg of perigee:   211.2343 deg
Mean anomaly:     275.7318 deg
Mean motion:   15.78330083 rev/day
Decay rate:     2.0610e-04 rev/day^2
Epoch rev:           47163
Checksum:              247

Satellite: OO-38
Catalog number: 26063
Epoch time:      07045.73231838
Element set:     839
Inclination:      100.2193 deg
RA of node:       025.7742 deg
Eccentricity:    0.0037174
Arg of perigee:   144.0490 deg
Mean anomaly:     216.3194 deg
Mean motion:   14.35795941 rev/day
Decay rate:        1.3e-07 rev/day^2
Epoch rev:           36947
Checksum:              304

Satellite: NO-45
Catalog number: 26932
Epoch time:      07046.62810998
Element set:     528
Inclination:      067.0552 deg
RA of node:       100.3656 deg
Eccentricity:    0.0004133
Arg of perigee:   285.3399 deg
Mean anomaly:     074.7243 deg
Mean motion:   14.29549348 rev/day
Decay rate:       -5.4e-07 rev/day^2
Epoch rev:           28076
Checksum:              322

Satellite: UWE-1
Catalog number: 28892
Epoch time:      07046.65860430
Element set:     677
Inclination:      098.1450 deg
RA of node:       305.6316 deg
Eccentricity:    0.0018328
Arg of perigee:   129.7961 deg
Mean anomaly:     230.4848 deg
Mean motion:   14.59464640 rev/day
Decay rate:        9.5e-07 rev/day^2
Epoch rev:            6948
Checksum:              331

Satellite: CO-58
Catalog number: 28895
Epoch time:      07046.70989441
Element set:     659
Inclination:      098.1466 deg
RA of node:       305.8472 deg
Eccentricity:    0.0018901
Arg of perigee:   130.2845 deg
Mean anomaly:     229.9995 deg
Mean motion:   14.59514092 rev/day
Decay rate:        9.4e-07 rev/day^2
Epoch rev:            6937
Checksum:              363

